Notices

What's New in latest Release from April 7th, 2021:

- Updated Glossary, including Speed of Maximum Gust, and Total Hourly Precipitation

- Updated national and regional climate services offices contacts and prices information

- Addition of station inventory lists for 1981-2010, 1971-2000, and 1961-1990 Normals.

If you haven't already, please take our survey and provide feedback about our website: https://eccc.sondage-survey.ca/f/LanguageSelection.aspx?s=442ca660-fcf1-47c0-95a9-59707d6fd709

Hourly Data Report for March 30, 2019

MIRAMICHI RCS
NEW BRUNSWICK
Current Station Operator: ECCC - MSC

47°00'34.000" N
65°27'54.000" W
33.00 m
8100989
71744
ACQ

Download Data

Hourly Data (March 2019)
Hourly Data Report for March 30, 2019
TIME
LST
Temp Definition
°C
Dew Point Definition
°C
Rel Hum Definition
%
Precip. Amount Definition
mm

Wind Dir Definition
10's deg

Wind Spd Definition
km/h
Visibility Definition
km
Stn Press Definition
kPa
Hmdx Definition


Wind Chill Definition


Weather Definition


00:00 2.3 0.1 85 0.0 34 7   101.57     LegendNANA
01:00 1.5 -1.8 78 0.0 34 7   101.67     LegendNANA
02:00 0.3 -4.4 71 0.0 36 7   101.78     LegendNANA
03:00 -0.6 -7.2 61 0.0 34 7   101.86   -3 LegendNANA
04:00 -1.4 -9.9 52 0.0 35 11   101.94   -5 LegendNANA
05:00 -2.0 -10.0 54 0.0 35 8   102.05   -5 LegendNANA
06:00 -3.1 -10.4 57 0.0 36 7   102.12   -6 LegendNANA
07:00 -3.4 -10.1 60 0.0 35 6   102.24   -6 LegendNANA
08:00 -2.7 -10.4 56 0.0 4 11   102.26   -7 LegendNANA
09:00 -1.7 -8.6 59 0.0 7 12   102.25   -6 LegendNANA
10:00 -0.6 -6.3 65 0.0 8 18   102.26   -6 LegendNANA
11:00 0.4 -5.5 65 0.0 8 12   102.22     LegendNANA
12:00 0.8 -5.7 62 0.0 7 12   102.14     LegendNANA
13:00 0.6 -5.1 66 0.0 8 15   102.11     LegendNANA
14:00 0.5 -4.7 68 0.0 7 17   102.02     LegendNANA
15:00 0.5 -4.9 67 0.0 5 12   101.95     LegendNANA
16:00 -0.3 -5.2 70 0.0 5 17   101.89   -5 LegendNANA
17:00 0.7 -5.1 65 0.0 8 17   101.80     LegendNANA
18:00 0.3 -4.4 70 0.0 9 19   101.71     LegendNANA
19:00 -0.1 -4.4 73 0.0 8 14   101.65   -4 LegendNANA
20:00 -0.3 -4.3 74 0.0 7 14   101.58   -5 LegendNANA
21:00 -0.1 -3.7 77 0.0 7 10   101.54   -3 LegendNANA
22:00 0.2 -3.1 78 0.0 6 7   101.47     LegendNANA
23:00 0.0 -2.5 83 0.0 7 6   101.36   -2 LegendNANA

Notes on Data Quality.

Legend

  • E = Estimated
  • M = Missing
  • NA = Not Available*
  • [empty] = Indicates an unobserved value
Date modified: